Weather History for Valley, United Kingdom

Change the Weather History Date:

Monday, February 18, 2013

  Actual Average Record
Temperature  
Mean Temperature 43 °F -  
Max Temperature 54 °F 47 °F 54 °F (2013)
Min Temperature 32 °F 38 °F 26 °F (2008)
Degree Days  
Heating Degree Days 22    
Moisture  
Dew Point 28 °F    
Average Humidity 63    
Maximum Humidity 93    
Minimum Humidity 22    
Precipitation  
Precipitation 0.00 in 0.08 in - ()
Sea Level Pressure  
Sea Level Pressure 30.04 in    
Wind  
Wind Speed 4 mph ()    
Max Wind Speed 10 mph    
Max Gust Speed -    
Visibility 10.9 miles    
Events      
Averages and records for this station are not official NWS values.
T = Trace of Precipitation, MM = Missing Value Source: Averaged Metar Reports

Daily Weather History Graph

Daily Weather History Graph

Search for Another Location

Airport:

Trip Planner

Search our weather history database for the weather conditions in past years. The results will help you decide how hot, cold, wet, or windy it might be!

Date:

Astronomy

Feb. 18, 2013 Rise Set
Actual Time 7:29 AM GMT 5:35 PM GMT
Civil Twilight 6:53 AM GMT 6:11 PM GMT
Nautical Twilight 6:13 AM GMT 6:51 PM GMT
Astronomical Twilight 5:33 AM GMT 7:31 PM GMT
Moon 10:46 AM GMT (2/18) 2:19 AM GMT (2/18)
Length of Visible Light 11h 17m
Length of Day
10h 05m
First Quarter, 56% of the Moon is Illuminated
Feb 18
First Quarter
Feb 25
Full
Mar 4
Last Quarter
Mar 11
New
Mar 19
First Quarter

Hourly Weather History & Observations

Time (GMT) Temp. Windchill Dew Point Humidity Pressure Visibility Wind Dir Wind Speed Gust Speed Precip Events Conditions
12:50 AM 33.8 °F 30.8 °F 30.2 °F 87% 30.01 in 6.2 mi East 3.5 mph - N/A   Unknown
1:50 AM 35.6 °F 31.7 °F 28.4 °F 75% 30.01 in 6.2 mi East 4.6 mph - N/A   Unknown
2:50 AM 34 °F - 28 °F 69% 30.03 in 31 mi East 5.8 mph - -   Clear
2:50 AM 33.8 °F 28.6 °F 28.4 °F 81% 30.01 in - East 5.8 mph - N/A   Clear
3:50 AM 32.0 °F - 28.4 °F 87% 30.01 in - ESE 1.2 mph - N/A   Clear
4:50 AM 32.0 °F 28.7 °F 28.4 °F 87% 30.01 in - NNE 3.5 mph - N/A   Clear
5:50 AM 34 °F - 27 °F 67% 30.02 in 31 mi NE 5.8 mph - -   Clear
5:50 AM 33.8 °F 28.6 °F 26.6 °F 75% 30.01 in - NE 5.8 mph - N/A   Clear
6:50 AM 35.6 °F 29.2 °F 30.2 °F 81% 30.01 in - ENE 8.1 mph - N/A   Clear
7:50 AM 37.4 °F 32.8 °F 26.6 °F 65% 30.04 in - East 5.8 mph - N/A   Clear
8:50 AM 39 °F - 25 °F 46% 30.06 in 22 mi East 6.9 mph - -   Clear
8:50 AM 39.2 °F 34.2 °F 24.8 °F 56% 30.04 in - East 6.9 mph - N/A   Clear
9:50 AM 46.4 °F - 26.6 °F 46% 30.04 in - East 2.3 mph - N/A   Clear
10:50 AM 48.2 °F - 23.0 °F 37% 30.04 in - SSE 10.4 mph - N/A   Clear
11:50 AM 51 °F - 24 °F 22% 30.05 in 25 mi SE 6.9 mph - -   Clear
11:50 AM 50.0 °F - 24.8 °F 37% 30.04 in - SE 6.9 mph - N/A   Clear
12:50 PM 51.8 °F - 24.8 °F 35% 30.04 in - South 6.9 mph - N/A   Clear
1:50 PM 51.8 °F - 30.2 °F 44% 30.04 in - SW 4.6 mph - N/A   Clear
2:50 PM 54 °F - 29 °F 27% 30.04 in 28 mi SSW 2.3 mph - -   Clear
2:50 PM 53.6 °F - 30.2 °F 41% 30.04 in - SSW 2.3 mph - N/A   Clear
3:50 PM 51.8 °F - 30.2 °F 44% 30.04 in - East 2.3 mph - N/A   Clear
4:50 PM 44.6 °F 40.7 °F 33.8 °F 66% 30.04 in - West 6.9 mph - N/A   Clear
5:50 PM 44 °F - 31 °F 50% 30.07 in 19 mi SSW 3.5 mph - -   Clear
5:50 PM 44.6 °F 43.1 °F 32.0 °F 61% 30.06 in - SSW 3.5 mph - N/A   Clear
6:50 PM 41.0 °F 37.1 °F 32.0 °F 70% 30.06 in - SSE 5.8 mph - N/A   Clear
7:50 PM 37.4 °F 32.1 °F 32.0 °F 81% 30.06 in - East 6.9 mph - N/A   Clear
8:50 PM 37.4 °F 32.8 °F 30.2 °F 75% 30.06 in - East 5.8 mph - N/A   Clear
9:50 PM 33.8 °F - 28.4 °F 81% 30.09 in - NE 2.3 mph - N/A   Clear
10:50 PM 32.0 °F - 30.2 °F 93% 30.09 in - SE 1.2 mph - N/A   Clear
11:50 PM 33 °F - 29 °F 79% 30.11 in 12 mi ENE 2.3 mph - -  
11:50 PM 33.8 °F - 28.4 °F 81% 30.09 in - ENE 2.3 mph - N/A   Clear